Regional Weather Roundup
Issued by NWS

Home | Current Version | Previous Version | Graphics & Text | Print | Product List | Glossary On
Versions: 1 2 3 4 5 6 7 8 9 10 11 12 13 14 15 16 17 18 19 20 21 22 23 24 25 26 27 28 29 30 31 32 33 34 35 36 37 38 39 40 41 42 43 44 45 46 47 48 49 50
000
ASUS43 KDMX 212006
RWRIA

WEATHER ROUNDUP FOR IOWA
NATIONAL WEATHER SERVICE DES MOINES IA
300 PM CDT MON MAY 21 2018

NOTE: "FAIR" INDICATES FEW OR NO CLOUDS BELOW 12,000 FEET WITH NO
SIGNIFICANT WEATHER AND/OR OBSTRUCTIONS TO VISIBILITY.

* - THESE STATIONS ARE NOT NWS STATIONS...THUS NOT UNDER NWS
QUALITY CONTROL.  THEY ALSO DO NOT REPORT WEATHER SUCH
AS PRECIPITATION OR FOG.

IAZ001>003-012>014-020>022-031>034-043>046-212100-
   NORTHWEST IOWA

CITY           SKY/WX    TMP DP  RH WIND       PRES   REMARKS
CARROLL *      CLOUDY   N/A N/A N/A CALM      30.01F
CHEROKEE *     CLOUDY    63  61  94 CALM      30.01S FOG
DENISON *      CLOUDY    64  61  88 W9        30.03S
LE MARS *      CLOUDY    64  57  77 SW6       30.01S
ORANGE CITY *  CLOUDY    64  59  82 CALM      30.01F
SHELDON *      CLOUDY    63  63 100 S5        30.00S
SIOUX CITY     CLOUDY    65  57  75 CALM      30.01F
SPENCER        CLOUDY    61  58  90 S5        30.01F
STORM LAKE *   PTSUNNY   63  61  94 W5        30.01F
$$

IAZ055>058-069>071-079>083-090>094-212100-
   SOUTHWEST IOWA

CITY           SKY/WX    TMP DP  RH WIND       PRES   REMARKS
ATLANTIC *     PTSUNNY   72  61  68 W10       30.01S
AUDUBON *      PTSUNNY   72  63  73 W5        30.02S
CLARINDA *     CLOUDY    73  61  64 SW9       30.03F
COUNCIL BLFS * CLOUDY    68  64  88 VRB3G15   30.02F
CRESTON *      CLOUDY    70  61  73 W10       30.02F
HARLAN  *      CLOUDY    64  61  88 W12       30.06S
LAMONI         MOSUNNY   71  62  73 W12       30.01F
RED OAK *      PTSUNNY   72  57  60 W9G16     30.02S
SHENANDOAH *   MOSUNNY   73  57  56 W7G15     30.02F
$$

IAZ047>049-059>061-072>074-084-212100-
   CENTRAL IOWA

CITY           SKY/WX    TMP DP  RH WIND       PRES   REMARKS
AMES           CLOUDY    66  60  81 SW3       30.01F
ANKENY *       CLOUDY    66  61  82 NW6       30.01F
BOONE *        CLOUDY    64  61  88 W5        30.00F
CHARITON *     CLOUDY    70  64  83 W9        30.01S
DES MOINES     CLOUDY    70  62  76 NW7       30.00F
GRINNELL*      CLOUDY    64  59  86 W7        30.02S
KNOXVILLE *    CLOUDY    66  63  88 NW9       30.00S
MARSHALLTOWN   CLOUDY    62  60  93 W5        30.00F
NEWTON *       CLOUDY    64  61  88 W8        30.01F
PELLA *        PTSUNNY   65  64  94 W9        30.02F
PERRY *        CLOUDY    67  62  82 NW3       30.01F
$$

IAZ004>006-015-016-023>025-035-036-212100-
   NORTH CENTRAL IOWA

CITY           SKY/WX    TMP DP  RH WIND       PRES   REMARKS
ALGONA *       CLOUDY    61  59  94 SW5       30.02S FOG
CLARION *      CLOUDY    61  57  88 W3        30.02S
ESTHERVILLE    LGT RAIN  60  58  92 SW6       30.01F
FORT DODGE *   CLOUDY    62  59  90 CALM      30.02F
MASON CITY     CLOUDY    59  56  89 S6        30.03F
FOREST CITY *  CLOUDY    59  59 100 CALM      30.03R FOG
WEBSTER CITY * CLOUDY    63  61  94 SW3       30.00S
IOWA FALLS *   CLOUDY    62  58  87 CALM      30.03S
$$

IAZ007>011-017>019-026>030-037>042-050>054-066-212100-
   NORTHEAST IOWA

CITY           SKY/WX    TMP DP  RH WIND       PRES   REMARKS
CEDAR RAPIDS   CLOUDY    62  61  96 NW3       29.99F FOG
CHARLES CITY * CLOUDY    59  55  88 CALM      30.02F
CLINTON *      CLOUDY    64  63  96 S6        30.01F
DECORAH *      PTSUNNY   57  57 100 NE6       30.02S FOG
DUBUQUE        CLOUDY    59  57  93 E6        30.01F FOG
MONTICELLO *   PTSUNNY   61  61 100 E3        30.00F
OELWEIN *      CLOUDY    59  57  94 SE5       30.02S
WATERLOO       CLOUDY    61  57  87 CALM      30.01S
$$

IAZ064-065-067-068-078-212100-
   EAST CENTRAL IOWA

CITY           SKY/WX    TMP DP  RH WIND       PRES   REMARKS
DAVENPORT      PTSUNNY   69  64  84 S7        30.00F
IOWA CITY      CLOUDY    69  63  81 W3        29.99F
MT. PLEASANT * SUNNY     73  61  64 W14G23    29.99S
MUSCATINE *    PTSUNNY   73  64  73 VRB5      29.97F
QUAD CITIES    PTSUNNY   73  65  75 VRB6      29.97F
$$

IAZ062-063-075>077-085>089-095>099-212100-
   SOUTHEAST IOWA

CITY           SKY/WX    TMP DP  RH WIND       PRES   REMARKS
BURLINGTON     CLOUDY    76  65  68 SW12      29.97F
FAIRFIELD *    PTSUNNY   70  63  78 W7G16     30.00S
FORT MADISON * PTSUNNY   79  64  61 W10G16    29.98F HX  81
KEOKUK *       PTSUNNY   79  64  61 W18       29.97F HX  81
OSKALOOSA *    PTSUNNY   68  62  82 W10       30.01S
CENTERVILLE *    N/A     72  66  83 CALM      30.02F
OTTUMWA        CLOUDY    70  62  76 W7        30.00S
WASHINGTON *   CLOUDY    72  68  88 W12       30.00R
$$

ABBREVIATIONS USED IN REMARKS
   TC - TEMPERATURES IN CELSIUS
  WCI - WIND CHILL INDEX
   HX - HEAT INDEX
  VSB - VISIBILITY
$$





USA.gov is the U.S. government's official web portal to all federal, state and local government web resources and services.